Location: Greenwich
(51.4790°N, 0.0090°E)
Time: 22:03:59
(UTC+01:00)

N. Korean satellite - Pass Details

Date: 29 September 2021
Orbit: 450 x 495 km, 97.3° (Epoch: 25 October)

Event Time Altitude Azimuth Distance (km) Brightness Sun altitude
Rises 05:45:18 0° 22° (NNE) 2,539 10.7 -12.0°
Reaches altitude 10° 05:47:33 10° 34° (NNE) 1,664 9.9 -11.7°
Maximum altitude 05:50:42 29° 96° (E) 920 8.8 -11.2°
Drops below altitude 10° 05:53:52 10° 157° (SSE) 1,672 9.5 -10.7°
Sets 05:56:08 0° 169° (S) 2,554 10.3 -10.4°
